Location: ?ern� Novina
(50.6762°N, 14.8696°E)
Time: 12:42:08
(UTC+00:00)

Cosmos 2333 Rocket - Pass Details

Date: 03 March 2021
Orbit: 837 x 864 km, 70.8° (Epoch: 16 April)

Event Time Altitude Azimuth Distance (km) Brightness Sun altitude
Rises 18:48:08 0° 193° (SSW) 3,389 5.3 -20.1°
Reaches altitude 10° 18:50:36 10° 189° (S) 2,462 4.5 -20.5°
Maximum altitude 18:56:06 56° 113° (ESE) 1,010 2.2 -21.3°
Drops below altitude 10° 19:01:41 10° 36° (NE) 2,496 4.5 -22.1°
Sets 19:04:12 0° 33° (NNE) 3,441 5.2 -22.5°
